Regional Weather Roundup
Issued by NWS Huntsville, AL

Home | Current Version | Previous Version | Text Only | Print | Product List | Glossary On
Versions: 1 2 3 4 5 6 7 8 9 10 11 12 13 14 15 16 17 18 19 20 21 22 23 24 25 26 27 28 29 30 31 32 33 34 35 36 37 38 39 40 41 42 43 44 45 46 47 48 49 50
000
ASUS44 KHUN 202210
RWRHUN

WEATHER ROUNDUP FOR THE TENNESSEE VALLEY
NATIONAL WEATHER SERVICE HUNTSVILLE AL
500 PM CDT SUN APR 20 2014

ALZ001>004-202300-
NORTHWEST ALABAMA

CITY           SKY/WX    TMP DP  RH WIND       PRES   REMARKS
COURTLAND HCN    N/A     75 N/A N/A N3          N/A
RUSSELLVILLE     N/A     77 N/A N/A MISG        N/A
SHOALS AIRPORT MOSUNNY   79  45  29 E6        30.13F
SHOALS TVA RES   N/A     75 N/A N/A MISG        N/A
$$

ALZ005>007-016-202300-
NORTH CENTRAL ALABAMA

CITY           SKY/WX    TMP DP  RH WIND       PRES   REMARKS
CULLMAN AG STN   N/A     75 N/A N/A S3          N/A
DECATUR AP     MOSUNNY   78  46  32 VRB3      30.13F
HUNTSVILLE AP  PTSUNNY   79  45  29 NW5       30.13F
HUN NWS/UAH      N/A     78  39  24 NW5         N/A
MERIDIANVILLE  MOSUNNY   75  34  22 CALM      30.13F
VINEMONT AP    FAIR      76  45  33 NE6       30.15F
$$

ALZ008>010-202300-
NORTHEAST ALABAMA

CITY           SKY/WX    TMP DP  RH WIND       PRES   REMARKS
ALBERTVILLE    SUNNY     75  52  43 N5        30.13S
FORT PAYNE     MOSUNNY   77  34  20 CALM      30.11F
SCOTTSBORO AP  MOSUNNY   77  43  29 SE7       30.12F
SCOTTSBORO HCN   N/A     77 N/A N/A MISG        N/A
VALLEY HEAD      N/A     75 N/A N/A MISG        N/A
$$

TNZ076-096-097-202300-
SOUTHEASTERN MIDDLE TENNESSEE

CITY           SKY/WX    TMP DP  RH WIND       PRES   REMARKS
FAYETTEVILLE   FAIR      76  43  30 NE7       30.14F
TULLAHOMA      SUNNY     75  43  31 W7        30.15S
WINCHESTER     SUNNY     77  45  31 CALM      30.13F
$$

...SURROUNDING SITES...

CITY           SKY/WX    TMP DP  RH WIND       PRES   REMARKS
ATLANTA        MOSUNNY   73  41  31 NE8       30.14F
ANNISTON       SUNNY     77  44  30 NE3       30.12F
BIRMINGHAM     PTSUNNY   79  41  25 CALM      30.14F
CHATTANOOGA    PTSUNNY   79  37  22 NE7       30.12F
CORINTH        FAIR      79  39  24 CALM      30.12F
DALTON         SUNNY     75  45  33 N3        30.12F
GADSDEN        NOT AVBL
GOLDEN TRNGL   SUNNY     77  48  36 CALM      30.16F
HALEYVILLE     FAIR      79  44  28 NE6       30.15F
JACKSON TN     SUNNY     80  47  31 S6        30.11F
LEWISBURG      FAIR      80  46  30 CALM      30.12F
MEMPHIS        PTSUNNY   79  49  34 VRB5      30.10F
MURFREESBORO   FAIR      78  41  26 VRB3      30.12F
NASHVILLE      MOSUNNY   79  40  24 E7        30.12F
OXFORD MS      FAIR      77  43  29 SW5       30.13S
ROME           SUNNY     77  45  32 E7        30.10F
SAVANNAH       MOSUNNY   79  44  28 CALM      30.12F
TUPELO         SUNNY     78  44  29 CALM      30.11F
TUSCALOOSA     MOSUNNY   79  45  29 E5        30.12F
$$

...GULF COAST WEATHER...

CITY           SKY/WX    TMP DP  RH WIND       PRES   REMARKS
GULFPORT       SUNNY     71  59  65 S13       30.11F
PASCAGOULA     MOSUNNY   72  59  63 SW10      30.11S
MOBILE         MOSUNNY   73  55  53 N7        30.12F
GULF SHORES    MOCLDY    68  54  62 NE8       30.13S
PENSACOLA      CLOUDY    66  54  65 NE9       30.13F
DESTIN         CLOUDY    63  52  67 NE7       30.14F
PANAMA CITY    CLOUDY    60  53  78 NE9       30.13S
APPALACHICOLA  CLOUDY    63  53  70 N12       30.12R
$$




USA.gov is the U.S. government's official web portal to all federal, state and local government web resources and services.